Location: Beccas
(43.4309°N, 0.1528°E)
Time: 21:13:07
(UTC+00:00)

ISS - Visible Passes

Search period start: 24 January 2022 00:00
Search period end: 03 February 2022 00:00
Orbit: 413 x 422 km, 51.6° (Epoch: 24 January)

Date Brightness Start Highest point End Pass type
(mag) Time Alt. Az. Time Alt. Az. Time Alt. Az.
24 Jan -1.8 18:51:17 10° WNW 18:53:48 21° N 18:53:48 21° N visible
25 Jan -2.0 18:02:55 10° WNW 18:05:41 23° NNW 18:07:45 14° NE visible
25 Jan -0.5 19:40:37 10° NW 19:40:41 10° NW 19:40:41 10° NW visible
26 Jan -1.8 18:52:28 10° NW 18:54:37 19° N 18:54:37 19° N visible
27 Jan -1.9 18:04:12 10° NW 18:06:44 20° N 18:08:32 14° NE visible
27 Jan -0.6 19:41:18 10° NW 19:41:28 11° NW 19:41:28 11° NW visible
28 Jan -2.0 18:53:16 10° NW 18:55:25 22° N 18:55:25 22° N visible
29 Jan -2.0 18:05:09 10° NW 18:07:46 21° N 18:09:23 15° NE visible
29 Jan -0.7 19:41:48 10° NW 19:42:19 14° NW 19:42:19 14° NW visible
30 Jan -2.6 18:53:47 10° NW 18:56:20 33° N 18:56:20 33° N visible
31 Jan -2.6 18:05:45 10° NW 18:08:41 27° NNE 18:10:25 18° ENE visible
31 Jan -1.0 19:42:21 10° WNW 19:43:22 18° WNW 19:43:22 18° WNW visible
01 Feb -3.9 18:54:14 10° NW 18:57:33 75° NNE 18:57:33 75° NNE visible
02 Feb -3.5 18:06:09 10° NW 18:09:25 49° NNE 18:11:51 16° E visible
02 Feb -1.1 19:43:14 10° W 19:44:49 20° WSW 19:44:49 20° WSW visible
